"Time","Temp","Dewpoint","Humidity","Pressure","Direction","Speed","Gust","Precip","PrecipRate"
"06:34:57","41.2","40.4","97","29.81","321","0","0","0.01","0.01"
"06:39:59","41.5","40.6","96.6","29.81","321","0","0","0.01","0.01"
"06:44:57","42.1","41.3","97","29.81","321","0","0","0.01","0.01"
"06:49:58","42.6","41.8","97","29.80","344","0.8","4.8","0.01","0.01"
"06:54:59","43.1","42.3","97","29.80","344","0.8","3.6","0.01","0.01"
"06:59:58","43.4","42.6","97","29.81","344","0.1","1.2","0.01","0.01"
"07:04:59","43.5","42.7","97","29.81","344","0.3","2.4","0.01","0.00"
"07:09:58","43.7","42.9","97","29.81","341","0.5","2.4","0.01","0.00"
"07:14:59","43.8","43","97","29.82","336","0","0","0.01","0.00"
"07:19:57","43.9","43.1","97","29.82","327","0.2","2.4","0.01","0.00"
"07:24:57","44","43.2","97","29.82","327","0.5","2.4","0.01","0.00"
"07:29:57","44","43.2","97","29.82","327","1.5","3.6","0.01","0.00"
"07:34:56","44","43.2","97","29.82","327","1.4","3.6","0.01","0.00"
"07:39:56","44","43.2","97","29.82","329","1.9","4.8","0.01","0.00"
"07:44:59","43.8","43","97","29.82","342","1.9","6","0.01","0.00"
"07:49:56","43.7","42.9","97","29.81","342","2.5","6","0.01","0.00"
"07:54:59","43.7","42.9","97","29.81","348","2.2","5.8","0.01","0.00"
"07:59:56","43.7","42.9","97","29.82","346","0.4","3.5","0.01","0.00"
"08:04:56","43.8","43","97","29.82","346","0.4","2.4","0.01","0.00"
"08:09:56","43.8","43","97","29.82","346","0.7","3.6","0.01","0.00"
"08:14:57","44","43.2","97","29.82","346","0.1","2.3","0.01","0.00"
"08:19:56","44.1","43.3","97","29.82","346","0.1","1.2","0.01","0.00"
"08:24:56","44.2","43.4","97","29.82","346","0.2","1.2","0.01","0.00"
"08:29:56","44.3","43.5","97","29.85","346","0.4","2.4","0.01","0.00"
"08:34:39","44.4","43.6","97","29.85","346","0.1","2.4","0.01","0.00"
"08:44:59","46","45.2","97","29.85","335","3.9","6","0.01","0.00"
"08:49:56","45.8","45.2","97.6","29.84","323","4.5","7.2","0.01","0.00"
"08:54:59","46.1","45.3","97.2","29.84","334","5.4","13.2","0.01","0.00"
"08:59:58","46.7","46","97","29.84","323","6","12.7","0.01","0.00"
"09:04:58","47.6","46.8","97","29.83","326","5","13.2","0.01","0.00"
"09:09:58","48.2","47","95.9","29.83","332","6","13.2","0.01","0.00"
"09:14:58","49.1","47.7","94.8","29.84","318","4.5","12.7","0.01","0.00"
"09:19:58","49.7","47.9","93.3","29.84","329","5.4","15","0.01","0.00"
"09:24:57","50.6","48.5","92.3","29.84","331","4.3","8.4","0.01","0.00"
"09:29:57","51.4","48.7","90.5","29.84","310","2.4","8.4","0.01","0.00"
"09:34:57","51.2","48.5","90.3","29.84","278","2.5","8.1","0.01","0.00"
"09:39:59","51.6","48.9","90.4","29.84","327","2.8","6","0.01","0.00"
"09:44:58","51.8","48.9","89.7","29.84","323","4.6","12","0.01","0.00"
"09:49:58","51.7","48.8","89.4","29.83","318","4.1","10.8","0.01","0.00"
"09:54:57","51.7","48.4","88.4","29.83","333","6.8","13.2","0.01","0.00"
"09:59:57","51.4","48","88.2","29.83","334","6","16.8","0.01","0.00"
"10:04:57","51.3","47.9","88","29.83","333","7.5","16.1","0.01","0.00"
"10:09:57","51.5","48.1","87.8","29.83","334","6.4","18.4","0.01","0.00"
"10:14:57","51.9","48","86.6","29.83","319","6.6","17.3","0.01","0.00"
"10:19:57","52.2","48.1","85.7","29.83","343","6","12","0.01","0.00"
"10:24:57","52.4","48","84.8","29.83","332","6.5","17.3","0.01","0.00"
"10:29:56","52.3","47.3","83","29.83","332","7.1","18.4","0.01","0.00"
"10:34:58","52.3","47.2","82.7","29.82","335","6.6","18.4","0.01","0.00"
"10:39:56","52.2","46.9","82.3","29.82","336","6.5","15.6","0.01","0.00"
"10:44:59","52.7","47.2","81.8","29.82","327","7","16.1","0.01","0.00"
"10:49:59","53","47.3","81.1","29.81","333","7.5","18.4","0.01","0.00"
"10:54:58","53.5","47.4","79.8","29.81","332","8.5","17.3","0.01","0.00"
"10:59:58","53.3","47.1","79.3","29.81","332","7.9","16.1","0.01","0.00"
"11:04:58","53.2","47.1","79.7","29.81","331","6.9","18","0.01","0.00"
"11:09:58","53.2","46.7","78.6","29.81","326","8.1","18.4","0.01","0.00"
"11:14:58","53.3","46.6","78","29.81","339","8.5","18.4","0.01","0.00"
"11:19:58","53.6","47","78.3","29.80","334","6.3","15.6","0.01","0.00"
"11:24:58","55.1","48","76.7","29.80","328","6.6","13.2","0.01","0.00"
"11:29:58","56.3","47.8","73","29.80","299","7.1","20.7","0.01","0.00"
"11:34:58","56.1","46.6","70.2","29.79","308","6.7","18.4","0.01","0.00"
"11:39:59","56.2","46.8","70.7","29.79","326","6.6","17.3","0.01","0.00"
"11:44:59","56.8","46.4","68.2","29.79","308","8.6","19.6","0.01","0.00"
"11:49:59","57.1","46.3","67.4","29.79","305","6.2","12","0.01","0.00"
"11:54:58","57.5","46.6","67.1","29.79","282","5.3","13.2","0.01","0.00"
"11:59:58","58.1","46.3","64.9","29.79","286","5.7","18","0.01","0.00"
"12:04:59","57.7","45.1","62.8","29.79","297","7.7","18.4","0.01","0.00"
"12:09:58","57.5","44.8","62.4","29.79","315","8.3","18","0.01","0.00"
"12:14:59","57.4","44.1","61","29.79","319","10.2","23","0.01","0.00"
"12:19:59","57.2","43.4","60","29.78","310","6.6","19.6","0.01","0.00"
"12:24:56","57.6","43.4","58.9","29.78","328","6.8","19.6","0.01","0.00"
"12:29:56","57.2","42.6","58.1","29.78","305","7.2","20.7","0.01","0.00"
"12:34:56","57.7","43.5","59.2","29.78","280","5.4","18.4","0.01","0.00"
"12:39:58","58.4","44.4","59.5","29.78","292","7.3","18.4","0.01","0.00"
"12:44:58","57.7","43.8","59.8","29.79","320","7.9","18.4","0.01","0.00"
"12:49:58","55.8","42.7","61.3","29.79","334","9.9","26.5","0.01","0.00"
"12:54:59","54.9","42.4","62.6","29.79","338","8.4","19.2","0.01","0.00"
"12:59:59","54.8","42.5","63.4","29.79","335","9.5","20.7","0.01","0.00"
"13:04:59","54.7","42.3","62.8","29.79","330","8.5","19.6","0.01","0.00"
"13:09:59","54.7","42.6","63.7","29.79","334","6.2","15","0.01","0.00"
"13:14:56","54.6","42.4","63.1","29.79","344","8.7","18.4","0.01","0.00"
"13:19:57","54.3","42.2","63.5","29.79","334","7.8","18.4","0.01","0.00"
"13:24:57","54","42.3","64.3","29.79","316","6","12","0.01","0.00"
"13:29:58","53.8","42.1","64.5","29.79","302","6.1","23","0.01","0.00"
"13:34:58","53.7","41.9","64.2","29.78","320","6.6","18","0.01","0.00"
"13:39:57","53.8","41.6","63.3","29.78","307","6.3","16.8","0.01","0.00"
"13:44:57","53.8","41.5","62.9","29.78","323","7.5","18.4","0.01","0.00"
"13:49:57","53.7","41.2","62.4","29.77","330","7.6","16.1","0.01","0.00"
"13:54:58","53.6","41.3","63","29.77","333","7","16.1","0.01","0.00"
"13:59:59","53.5","41.2","63","29.77","330","7.3","17.3","0.01","0.00"
"14:04:59","53.3","41.2","63.4","29.76","335","7.6","21.6","0.01","0.00"
"14:09:59","53.2","41.1","63.5","29.76","323","6.5","21.9","0.01","0.00"
"14:14:57","53.1","41.1","63.8","29.76","341","7.5","19.6","0.01","0.00"
"14:19:57","52.9","41","64","29.76","334","7","18.4","0.01","0.00"
"14:24:58","52.9","41.1","64.2","29.76","333","6.1","15","0.01","0.00"
"14:29:59","52.9","41.3","64.7","29.76","312","4.3","12.7","0.01","0.00"
"14:34:56","52.8","41","64","29.75","315","6.2","19.2","0.01","0.00"
"14:39:58","52.7","40.9","63.9","29.75","328","5.3","19.6","0.01","0.00"
"14:44:58","52.6","41","64.3","29.75","331","6.8","17.3","0.01","0.00"
"14:49:59","52.6","40.9","64.2","29.75","324","5","10.8","0.01","0.00"
"14:54:56","52.5","40.6","63.7","29.75","310","5.9","15","0.01","0.00"
"14:59:57","52.5","40.7","64","29.76","335","5.4","13.2","0.01","0.00"
"15:04:58","52.4","40.7","64.3","29.76","329","4.9","11.5","0.01","0.00"
"15:09:58","52.4","40.8","64.5","29.76","317","5.1","14.4","0.01","0.00"
"15:14:59","53.1","41.4","64.6","29.76","299","4.2","15","0.01","0.00"
"15:19:56","53.2","41.2","63.8","29.76","331","4","10.8","0.01","0.00"
"15:24:57","52.9","41","64","29.76","331","2.8","6.9","0.01","0.00"
"15:29:58","52.7","41.2","64.6","29.76","329","2.9","14.4","0.01","0.00"
"15:34:59","52.5","41","64.7","29.76","288","4.2","15","0.01","0.00"
"15:39:57","52.3","40.9","64.8","29.76","310","5","16.1","0.01","0.00"
"15:44:58","52.3","40.3","63.5","29.76","308","6.8","20.7","0.01","0.00"
"15:49:59","52.3","40.7","64.4","29.76","325","5.7","15.6","0.01","0.00"
"15:54:56","52.3","40.8","64.7","29.76","312","4.1","14.4","0.01","0.00"
"15:59:57","52.3","40.6","64.2","29.76","319","5.9","18.4","0.01","0.00"
"16:04:57","52.5","40.8","64.3","29.76","329","4.6","12","0.01","0.00"
"16:09:57","52.6","40.9","64.2","29.76","311","3.4","9.2","0.01","0.00"
"16:14:59","52.7","41.3","64.8","29.76","298","3.6","13.2","0.01","0.00"
"16:19:56","52.6","40.8","64","29.76","281","3.9","13.2","0.01","0.00"
"16:24:58","52.4","40.8","64.6","29.76","303","4.1","15","0.01","0.00"
"16:29:59","52.3","40.9","65.2","29.77","292","2.6","6","0.01","0.00"
"16:34:57","52.1","40.8","65.3","29.77","296","3.5","10.8","0.01","0.00"
"16:39:56","51.9","40.9","65.9","29.77","335","4","8.4","0.01","0.00"
"16:44:57","51.8","40.8","66.2","29.77","334","3.8","10.8","0.01","0.00"
"16:49:59","51.6","41","67","29.77","308","2.4","7.2","0.01","0.00"
"16:54:57","51.5","40.7","66.5","29.77","310","3.6","8.4","0.01","0.00"
"16:59:59","51.5","40.7","66.5","29.77","320","4.3","10.8","0.01","0.00"
"17:04:59","51.5","40.9","67","29.77","317","3.9","8.4","0.01","0.00"
"17:09:59","51.4","40.8","67","29.77","330","2.8","6.9","0.01","0.00"
"17:14:58","51.3","40.7","67.2","29.77","330","4.6","13.2","0.01","0.00"
"17:19:56","51.2","40.8","67.5","29.77","330","5.3","13.2","0.01","0.00"
"17:24:57","51.1","40.1","66","29.77","335","6","14.4","0.01","0.00"
"17:29:59","51.1","39.6","64.9","29.79","322","7","16.1","0.01","0.00"
"17:34:56","51","39.2","64","29.79","332","8.6","19.6","0.01","0.00"
"17:39:59","51","39.2","64","29.79","331","7.4","17.3","0.01","0.00"
"17:44:56","50.8","39.1","64.1","29.79","311","8.2","24.2","0.01","0.00"
"17:49:58","50.7","39.2","64.6","29.78","324","6","16.1","0.01","0.00"
"17:54:59","50.6","39.3","65","29.78","327","6.1","13.2","0.01","0.00"
"17:59:57","50.4","39.3","65.5","29.79","334","5.4","16.1","0.01","0.00"
"18:04:58","50.3","39.4","66","29.79","311","5.9","16.1","0.01","0.00"
"18:09:58","50.2","39.4","66.3","29.79","321","4.9","13.2","0.01","0.00"
"18:14:57","50.1","39.4","66.5","29.79","312","5.6","16.8","0.01","0.00"
"18:19:58","50","39.5","66.8","29.79","323","4.7","17.3","0.01","0.00"
"18:24:59","49.9","39.4","67","29.79","323","6.5","17.3","0.01","0.00"
"18:29:57","49.9","39.4","67","29.79","306","4.3","13.2","0.01","0.00"
"18:34:58","49.8","39.3","67","29.79","306","4.9","12","0.01","0.00"
"18:39:58","49.7","39.3","67.2","29.79","310","9","23","0.01","0.00"
"18:44:56","49.8","39.3","67","29.80","321","6","20.7","0.01","0.00"
"18:49:58","49.7","39.2","67","29.80","315","7.4","18.4","0.01","0.00"
"18:54:57","49.6","39.2","67.3","29.80","332","5.6","19.2","0.01","0.00"
"18:59:55","49.5","39.4","67.9","29.81","323","4.5","12","0.01","0.00"
"19:04:56","49.4","39.3","68","29.81","318","3.9","12","0.01","0.00"
"19:09:56","49.3","39.2","68","29.81","306","3.8","12","0.01","0.00"
"19:14:59","49.2","39.3","68.5","29.82","319","3.2","15","0.01","0.00"
"19:19:57","49.1","39.4","68.9","29.82","277","1.5","7.2","0.01","0.00"
"19:24:59","49.1","39.3","68.9","29.82","310","2.4","6","0.01","0.00"
"19:29:57","49","39.3","69","29.82","304","2.4","6","0.01","0.00"
"19:34:59","48.9","39.2","69","29.82","335","2.9","7.2","0.01","0.00"
"19:39:58","48.9","39.2","69","29.82","321","2.6","12","0.01","0.00"
"19:44:56","48.9","39.2","69.1","29.83","282","3.4","12","0.01","0.00"
"19:49:58","48.9","39.2","69.1","29.83","336","4.5","13.2","0.01","0.00"
"19:54:58","48.8","39.1","69","29.83","333","4.2","10.8","0.01","0.00"
"19:59:58","48.9","39.2","69","29.84","309","3.9","15","0.01","0.00"
"20:04:58","48.9","39.2","69","29.84","333","5.5","15","0.01","0.00"
"20:09:58","48.9","39.2","69","29.84","327","2.9","8.4","0.01","0.00"
"20:14:56","48.9","39.2","69","29.84","318","5","14.4","0.01","0.00"
"20:19:58","48.9","39.2","69","29.83","332","7.5","17.3","0.01","0.00"
"20:24:56","48.9","39.2","69","29.83","339","4.6","16.1","0.01","0.00"
"20:29:58","48.8","39.1","69","29.84","321","3.5","11.5","0.01","0.00"
"20:34:56","48.8","39.1","69","29.84","336","5.1","13.2","0.01","0.00"
"20:39:59","48.8","39.1","69.2","29.84","295","3.1","8.1","0.01","0.00"
"20:44:56","48.7","39.2","69.5","29.85","337","2.5","7.2","0.01","0.00"
"20:49:58","48.7","39.4","70","29.85","351","2.9","12","0.01","0.00"
"20:54:59","48.6","39.3","70","29.85","329","3.6","8.4","0.01","0.00"
"20:59:57","48.5","39.2","70","29.85","319","4.3","14.4","0.01","0.00"
"21:04:59","48.6","39.1","69.6","29.85","312","4.6","15","0.01","0.00"
"21:09:58","48.6","39.1","69.6","29.85","338","5.8","15","0.01","0.00"
"21:14:56","48.6","39","69.3","29.85","300","4.5","12.7","0.01","0.00"
"21:19:58","48.5","38.9","69.2","29.85","338","4.4","12","0.01","0.00"
"21:24:59","48.5","38.8","69","29.85","325","3.5","13.2","0.01","0.00"
"21:29:56","48.5","39","69.5","29.85","302","3.7","12.7","0.01","0.00"
"21:34:58","48.4","39","69.9","29.85","319","2.3","12","0.01","0.00"
"21:39:57","48.3","39","70","29.85","298","4.2","11.5","0.01","0.00"
"21:44:58","48.2","38.9","70","29.85","296","2.3","7.2","0.01","0.00"
"21:49:59","48.1","38.8","70","29.85","343","4.8","14.4","0.01","0.00"
"21:54:57","48.1","38.8","70","29.85","338","3.6","8.1","0.01","0.00"
"21:59:58","48","38.7","70","29.85","336","3.4","8.4","0.01","0.00"
"22:04:59","47.9","38.6","70","29.85","321","3.3","8.4","0.01","0.00"
"22:09:58","47.8","38.6","70.2","29.85","314","3.9","8.4","0.01","0.00"
"22:14:56","47.7","38.6","70.4","29.85","303","3.8","10.8","0.01","0.00"
"22:19:58","47.7","38.7","70.7","29.85","331","4","12","0.01","0.00"
"22:24:56","47.7","38.7","70.8","29.85","339","3.5","8.1","0.01","0.00"
"22:29:57","47.7","38.5","70.3","29.85","316","5.2","13.2","0.01","0.00"
"22:34:58","47.7","38.6","70.7","29.85","286","3.1","7.2","0.01","0.00"
"22:39:58","47.5","38.5","70.6","29.85","298","3.8","6.9","0.01","0.00"
"22:44:59","47.4","38.5","70.9","29.85","319","5","15.6","0.01","0.00"
"22:49:56","47.3","38.4","70.9","29.85","307","3.7","12.7","0.01","0.00"
"22:54:58","47.2","38.2","70.6","29.85","300","5","10.8","0.01","0.00"
"22:59:59","47.1","38.1","70.8","29.85","304","3.5","12","0.01","0.00"
"23:04:56","47","38","70.8","29.85","311","5.3","13.2","0.01","0.00"
"23:09:59","46.9","38","71","29.85","299","5","13.2","0.01","0.00"
"23:14:58","46.9","38","71","29.85","315","6.3","15","0.01","0.00"
"23:19:59","46.9","38","71","29.85","323","4.6","12.7","0.01","0.00"
"23:24:56","46.7","37.8","71","29.85","305","4.6","13.2","0.01","0.00"
"23:29:58","46.6","37.7","71","29.85","303","5","12","0.01","0.00"
"23:34:59","46.5","37.7","71.1","29.85","304","5.9","12","0.01","0.00"
"23:39:58","46.4","37.5","71","29.85","325","5.4","12","0.01","0.00"
"23:44:59","46.4","37.5","71","29.86","311","4.6","16.1","0.01","0.00"
"23:49:56","46.2","37.3","71","29.86","305","4.7","15.6","0.01","0.00"
"23:54:58","46.1","37.2","71","29.86","256","4.1","10.8","0.01","0.00"
